C/2015 T2 ( PanSTARRS )

Japanese version
Home page
Updated on April 13, 2018

---------------------------------------------------------------------

* Profile

Discovery Date October 9, 2015
Magnitude 21.8 mag
Discoverer Pan-STARRS 1 telescope (Haleakala)

* Pictures

* Orbital Elements

Epoch 2017 May 7.0 TT = JDT 2457880.5
T 2017 May 20.45410 TT                                  MPCW
q   6.9353472            (2000.0)            P               Q
z  -0.0000508      Peri.   30.76289     +0.76567376     +0.05755083
 +/-0.0000008      Node    51.06043     +0.27837540     -0.92753290
e   1.0003521      Incl.  124.54726     +0.57987138     +0.36928394
From 174 observations 2015 Oct. 9-2017 Nov. 16, mean residual 0".4.

* Magnitudes Graph

        m1 = -2.0 + 5 log d + 20.0 log r

---------------------------------------------------------------------

The orbital elements are published on M.P.E.C. 2018-B155.
The magnitudes graphs are made with Comet for Windows.

---------------------------------------------------------------------

Copyright(C) Seiichi Yoshida (comet@aerith.net). All rights reserved.